Location: ??????
(55.6130°N, 37.7882°E)
Time: 18:24:44
(UTC+00:00)

USA 229 DEB - Pass Details

Date: 14 April 2024
Orbit: 892 x 1319 km, 63.4° (Epoch: 18 May)

Event Time Altitude Azimuth Distance (km) Brightness Sun altitude
Rises 01:34:28 0° 302° (WNW) 3,833 6.3 -7.5°
Reaches altitude 10° 01:37:02 10° 306° (NW) 2,936 5.8 -7.2°
Maximum altitude 01:44:03 64° 27° (NNE) 1,291 4.5 -6.3°
Drops below altitude 10° 01:51:47 10° 109° (ESE) 3,230 7.0 -5.3°
Sets 01:54:43 0° 112° (ESE) 4,239 7.5 -4.9°
